CAPE
1041 987 1353 1687 1573 1458 1319 1224 1087 963 1004 929 707 487 350 323 318 312 353 391 688 913 572 385 407 276 119 136 103 77 172 124 0 0 0 2 1 0 0 30 13 1 4
1102 1026 1290 1638 1595 1498 1403 1264 1151 1107 1024 790 517 332 269 254 250 334 408 690 898 926 524 371 295 103 44 49 0 0 0 66 98 171 132 0 3 6 7 9 12 6 8
1420 1071 1590 1478 1576 1535 1468 1373 1300 1186 919 620 398 327 294 256 328 440 472 604 726 917 520 307 75 0 0 0 69 0 0 0 0 226 168 1 1 3 4 3 85 19 11
1370 1132 1640 1324 1457 1476 1360 1305 1214 995 668 450 409 364 356 327 473 534 599 568 622 837 554 288 29 0 9 71 47 0 0 0 9 63 28 10 0 0 2 4 0 1 18
1179 886 1567 1220 1245 1344 1259 1168 952 660 439 398 405 466 415 531 646 967 1063 1019 841 868 729 163 30 42 99 207 135 52 0 6 38 13 6 3 0 0 0 0 2 0 1
1058 899 888 998 1098 1197 1117 980 629 457 396 399 381 441 593 638 868 938 1072 1071 1006 1026 713 89 82 112 187 133 53 0 0 4 25 18 23 3 0 0 0 1 4 6 7
800 938 1072 897 1048 1113 1067 702 424 428 462 419 393 468 519 477 523 555 757 1040 1039 996 320 113 120 68 109 44 0 0 0 0 3 19 12 3 2 0 0 0 1 2 4
420 669 908 828 963 922 694 380 318 390 408 349 420 418 406 348 349 388 441 584 475 348 291 234 175 57 9 0 0 0 0 0 3 7 17 1 1 0 0 0 0 1 2
572 654 353 603 541 283 156 168 179 294 305 324 365 317 278 264 248 272 302 335 290 231 221 153 81 16 0 0 0 0 0 0 2 5 11 2 0 0 0 0 0 1 1
527 312 92 96 134 57 82 124 183 225 204 220 212 187 192 187 211 224 217 240 237 206 149 30 32 0 0 0 0 0 0 0 0 5 1 2 6 5 0 0 0 0 0
388 408 153 145 92 10 1 169 227 238 159 156 139 124 75 48 22 56 182 194 188 122 78 8 0 0 0 0 0 0 0 0 0 0 0 9 13 14 4 0 0 0 0
447 300 167 145 156 8 0 11 157 196 125 121 90 98 67 147 106 72 115 100 70 8 0 0 0 0 0 0 0 0 0 0 0 0 0 0 5 12 2 1 0 0 0
328 313 209 173 69 1 9 3 7 82 68 186 211 179 169 229 238 137 55 3 0 0 0 0 0 0 0 0 0 0 0 0 0 0 0 0 0 5 3 2 0 0 0
235 170 135 147 89 2 2 0 55 49 96 204 215 342 410 329 269 119 42 19 0 0 0 0 0 0 0 0 0 0 0 0 0 0 0 0 0 0 10 9 0 0 0
40 24 97 41 30 32 6 4 0 117 144 216 267 372 350 365 496 207 172 38 2 0 0 0 0 0 0 0 0 0 0 0 0 0 0 0 0 0 7 0 0 0 0
14 39 7 6 5 12 9 3 2 98 87 164 241 267 508 413 475 287 204 63 3 0 1 0 1 0 0 0 0 0 0 0 0 0 0 0 0 0 0 0 0 0 0
10 2 0 2 2 1 14 95 195 205 174 104 114 405 324 338 354 288 155 43 20 15 11 0 10 0 0 0 0 0 0 0 0 0 0 0 0 0 0 0 0 0 0
0 2 1 0 0 58 120 186 252 145 172 143 178 260 359 469 473 296 59 40 34 22 27 13 0 0 0 0 0 0 0 0 0 0 0 0 0 0 0 0 0 0 0
20 0 0 4 61 239 308 331 193 297 71 27 163 420 662 702 478 284 119 71 15 31 18 5 0 0 0 0 0 0 0 0 0 0 0 0 0 0 0 0 0 0 0
15 4 50 201 287 457 589 284 100 107 100 141 379 535 710 722 452 274 183 31 8 3 0 0 0 0 0 0 0 0 0 0 0 0 0 0 0 0 0 0 0 0 0
16 0 66 265 376 487 424 280 89 39 75 191 515 600 686 604 455 384 132 0 13 0 0 0 0 0 0 0 0 0 0 0 0 0 0 0 0 0 0 0 0 0 0
90 213 249 274 459 513 396 219 49 40 54 173 728 704 698 540 383 253 78 0 6 0 2 0 0 0 0 0 0 0 0 0 0 0 0 0 0 0 0 0 0 0 0
242 321 319 370 367 533 468 286 102 84 103 232 666 597 542 468 394 258 57 7 1 13 0 0 0 0 0 0 0 0 0 0 0 0 0 0 0 0 0 0 0 0 0
547 545 588 543 514 705 693 401 208 123 150 325 538 484 508 341 224 29 68 34 3 9 3 0 0 0 0 0 1 0 0 0 0 0 0 0 0 0 0 0 0 3 2
561 642 739 654 756 752 985 683 434 312 333 472 723 676 593 174 56 66 50 12 3 14 6 1 0 0 0 5 0 0 2 1 0 0 0 0 0 0 0 0 1 1 0
1188 1064 700 723 857 882 990 1036 885 678 623 529 932 689 520 117 14 53 11 5 42 21 37 13 0 0 5 13 0 7 5 0 0 0 0 0 0 0 0 0 0 0 0
CIN
-118 -158 -37 -1 -1 -0 -0 -0 -6 -11 -7 -11 -22 -38 -36 -30 -22 -6 -2 -0 -0 -0 -1 -9 -24 -13 -22 -17 -19 -21 -6 -8 -0 -0 -0 -0 -0 -0 -0 -5 -0 -0 -0
-162 -184 -51 -1 -1 -0 -0 -0 -1 -0 -9 -21 -36 -52 -50 -33 -24 -8 -1 -0 -0 -0 -0 -30 -0 -23 -46 -42 -0 -0 -0 -25 -22 -28 -26 -0 -0 -0 -0 -0 -0 -0 -0
-98 -113 -4 -5 -2 -0 -0 -0 -0 -0 -13 -28 -43 -42 -40 -41 -11 -0 -0 -0 -0 -0 -0 -0 -33 -0 -0 -0 -28 -0 -0 -0 -10 -42 -13 -0 -0 -0 -0 -0 -12 -0 -0
-66 -87 -1 -4 -0 -0 -0 -0 -0 -1 -24 -41 -33 -34 -25 -14 -4 -0 -0 -0 -0 -0 -0 -1 -47 -0 -18 -29 -32 -0 -0 -0 -83 -71 -0 -0 -0 -0 -0 -0 -0 -0 -0
-51 -59 -1 -0 -1 -0 -0 -0 -0 -20 -36 -36 -30 -16 -11 -0 -0 -0 -0 -0 -0 -0 -0 -14 -53 -46 -34 -19 -25 -56 -0 -38 -73 -2 -0 -0 -0 -0 -0 -0 -0 -0 -0
-2 -18 -43 -0 -1 -0 -0 -0 -18 -42 -46 -29 -21 -12 -0 -0 -0 -0 -1 -0 -0 -0 -6 -31 -42 -37 -26 -31 -53 -0 -0 -60 -114 -0 -0 -0 -0 -0 -0 -0 -0 -0 -0
-2 -35 -5 -8 -1 -0 -0 -3 -26 -28 -17 -17 -10 -17 -2 -3 -1 -2 -3 -1 -1 -0 -13 -48 -39 -46 -37 -64 -0 -0 -0 -0 -0 -0 -0 -0 -0 -0 -0 -0 -0 -0 -0
-11 -10 -0 -1 -2 -1 -0 -2 -7 -5 -6 -13 -19 -28 -9 -50 -24 -36 -29 -7 -10 -21 -22 -31 -35 -59 -45 -0 -0 -0 -0 -0 -5 -0 -0 -0 -0 -0 -0 -0 -0 -0 -0
-29 -2 -0 -1 -2 -0 -3 -10 -16 -5 -5 -5 -13 -33 -90 -90 -75 -81 -56 -35 -48 -50 -48 -55 -67 -108 -0 -0 -0 -0 -0 -0 -0 -0 -0 -0 -0 -0 -0 -0 -0 -0 -0
-2 -0 -5 -2 -0 -0 -29 -7 -3 -2 -11 -21 -65 -98 -122 -120 -96 -84 -93 -76 -53 -68 -93 -154 -146 -0 -0 -0 -0 -0 -0 -0 -0 -0 -0 -0 -0 -0 -0 -0 -0 -0 -0
-40 -0 -12 -1 -1 -15 -2 -14 -6 -3 -18 -61 -78 -114 -168 -160 -176 -137 -68 -62 -85 -103 -134 -200 -0 -0 -0 -0 -0 -0 -0 -0 -0 -0 -0 -1 -0 -0 -0 -0 -0 -0 -0
-0 -0 -0 -0 -0 -11 -0 -8 -3 -8 -9 -27 -57 -61 -89 -50 -61 -109 -103 -141 -165 -86 -0 -0 -0 -0 -0 -0 -0 -0 -0 -0 -0 -0 -0 -0 -0 -0 -0 -0 -0 -0 -0
-0 -0 -0 -0 -0 -0 -4 -0 -3 -27 -14 -19 -11 -11 -35 -6 -22 -65 -160 -275 -0 -0 -0 -0 -0 -0 -0 -0 -0 -0 -0 -0 -0 -0 -0 -0 -0 -0 -0 -0 -0 -0 -0
-0 -0 -0 -0 -0 -0 -0 -0 -29 -56 -14 -0 -11 -3 -2 -2 -10 -60 -103 -125 -0 -0 -0 -0 -0 -2 -0 -0 -0 -0 -0 -0 -0 -0 -0 -0 -0 -0 -0 -0 -0 -0 -0
-4 -3 -0 -12 -1 -0 -0 -0 -0 -1 -0 -2 -4 -2 -1 -0 -0 -8 -6 -45 -4 -0 -0 -0 -0 -0 -0 -0 -0 -0 -0 -0 -0 -0 -0 -0 -0 -0 -0 -0 -0 -0 -0
-1 -1 -1 -2 -0 -0 -1 -0 -0 -28 -34 -12 -1 -1 -2 -0 -0 -0 -1 -14 -1 -0 -2 -0 -9 -4 -0 -0 -0 -0 -0 -0 -0 -0 -0 -0 -0 -0 -0 -0 -0 -0 -0
-0 -0 -0 -0 -0 -0 -21 -5 -3 -0 -0 -0 -0 -0 -0 -0 -1 -0 -7 -23 -6 -9 -5 -0 -1 -0 -0 -0 -0 -0 -0 -0 -0 -0 -0 -0 -0 -0 -0 -0 -0 -0 -0
-0 -0 -0 -0 -0 -22 -5 -5 -0 -0 -0 -0 -0 -0 -0 -0 -0 -3 -37 -13 -14 -14 -5 -2 -0 -0 -0 -0 -0 -0 -0 -0 -0 -0 -0 -0 -0 -0 -0 -0 -0 -0 -0
-0 -0 -0 -21 -16 -0 -0 -0 -0 -1 -1 -0 -0 -0 -0 -0 -3 -22 -38 -27 -24 -9 -5 -4 -0 -0 -0 -0 -0 -0 -0 -0 -0 -0 -0 -0 -0 -0 -0 -0 -0 -0 -0
-73 -0 -0 -0 -0 -1 -0 -0 -10 -16 -11 -3 -0 -0 -0 -0 -9 -22 -8 -29 -11 -2 -0 -0 -0 -0 -0 -0 -0 -0 -0 -0 -0 -0 -0 -0 -0 -0 -0 -0 -0 -0 -0
-86 -0 -3 -0 -0 -0 -0 -0 -2 -31 -15 -0 -0 -0 -0 -0 -10 -8 -4 -0 -8 -0 -0 -0 -0 -0 -0 -0 -0 -0 -0 -0 -0 -0 -0 -0 -0 -0 -0 -0 -0 -0 -0
-18 -2 -0 -0 -0 -0 -0 -0 -35 -43 -32 -1 -0 -0 -0 -0 -8 -15 -13 -0 -14 -0 -22 -0 -0 -0 -0 -0 -0 -0 -0 -0 -0 -0 -0 -0 -0 -0 -0 -0 -0 -0 -0
-10 -0 -0 -0 -0 -0 -0 -1 -36 -36 -24 -3 -0 -1 -0 -3 -6 -15 -22 -8 -14 -27 -0 -0 -0 -0 -0 -0 -0 -0 -0 -0 -0 -0 -0 -0 -0 -0 -0 -0 -0 -0 -0
-4 -0 -0 -1 -0 -0 -2 -2 -31 -43 -33 -4 -1 -2 -1 -5 -21 -12 -0 -0 -41 -37 -22 -0 -0 -0 -0 -0 -0 -0 -0 -0 -0 -0 -0 -0 -0 -0 -0 -0 -0 -0 -0
-28 -17 -1 -4 -0 -0 -1 -2 -10 -12 -5 -0 -0 -2 -5 -46 -35 -28 -6 -2 -29 -15 -14 -0 -0 -0 -0 -0 -0 -0 -0 -0 -0 -0 -0 -0 -0 -0 -0 -0 -0 -0 -0
-17 -23 -38 -21 -2 -0 -0 -0 -0 -4 -0 -0 -3 -4 -1 -46 -8 -19 -43 -17 -0 -5 -0 -0 -0 -0 -0 -0 -0 -0 -0 -0 -0 -0 -0 -0 -0 -0 -0 -0 -0 -0 -0
Wind_Speed
38 37 29 32 35 35 38 40 41 41 42 43 40 38 35 33 30 26 25 26 25 27 27 29 27 28 28 27 27 nan 21 22 nan nan nan nan nan nan nan nan nan nan nan
45 37 30 35 38 37 38 40 40 40 42 44 41 37 35 33 32 29 26 28 28 30 29 29 28 27 nan nan nan nan nan nan nan 24 31 nan nan nan nan nan nan nan nan
39 39 35 37 44 44 44 42 41 43 44 43 41 38 37 34 33 32 29 30 30 32 32 32 nan nan nan nan nan nan nan nan nan 21 20 nan nan nan nan nan nan nan nan
34 38 40 42 47 45 43 42 43 43 44 43 38 35 36 35 35 33 30 30 33 33 34 34 nan nan nan nan nan nan nan nan nan nan nan nan nan nan nan nan nan nan nan
34 36 47 44 48 46 47 46 45 41 40 39 37 35 36 38 35 34 30 31 35 34 37 34 nan nan nan 23 20 nan nan nan nan nan nan nan nan nan nan nan nan nan nan
31 37 44 41 46 48 48 47 44 41 39 39 37 38 37 37 36 35 33 37 40 38 40 nan nan 29 24 23 nan nan nan nan nan nan nan nan nan nan nan nan nan nan nan
37 30 40 41 42 48 50 48 44 41 41 40 38 39 37 38 37 37 40 41 42 43 38 37 29 nan 23 nan nan nan nan nan nan nan nan nan nan nan nan nan nan nan nan
48 40 46 41 48 55 57 52 47 45 42 39 38 39 39 40 40 41 44 46 43 44 41 31 26 nan nan nan nan nan nan nan nan nan nan nan nan nan nan nan nan nan nan
45 48 42 34 32 52 55 52 49 47 40 38 39 40 39 42 42 48 49 49 47 46 32 29 nan nan nan nan nan nan nan nan nan nan nan nan nan nan nan nan nan nan nan
26 26 nan nan 31 nan nan 42 41 39 41 44 42 39 40 44 46 46 49 49 46 31 29 nan nan nan nan nan nan nan nan nan nan nan nan nan nan nan nan nan nan nan nan
33 32 33 26 nan nan nan 55 49 35 44 47 46 47 nan nan nan nan 40 39 38 31 nan nan nan nan nan nan nan nan nan nan nan nan nan nan nan nan nan nan nan nan nan
27 37 36 36 35 nan nan nan 20 29 36 43 nan nan nan 47 37 nan 38 35 nan nan nan nan nan nan nan nan nan nan nan nan nan nan nan nan nan nan nan nan nan nan nan
29 31 37 35 nan nan nan nan nan nan nan 37 43 46 44 35 40 30 nan nan nan nan nan nan nan nan nan nan nan nan nan nan nan nan nan nan nan nan nan nan nan nan nan
34 35 33 35 nan nan nan nan nan nan nan 25 36 47 39 34 23 18 nan nan nan nan nan nan nan nan nan nan nan nan nan nan nan nan nan nan nan nan nan nan nan nan nan
nan nan nan nan nan nan nan nan nan 24 21 23 30 35 33 24 17 8 10 nan nan nan nan nan nan nan nan nan nan nan nan nan nan nan nan nan nan nan nan nan nan nan nan
nan nan nan nan nan nan nan nan nan nan nan 27 33 37 17 13 11 10 12 nan nan nan nan nan nan nan nan nan nan nan nan nan nan nan nan nan nan nan nan nan nan nan nan
nan nan nan nan nan nan nan nan 30 25 27 18 11 10 17 10 5 11 14 nan nan nan nan nan nan nan nan nan nan nan nan nan nan nan nan nan nan nan nan nan nan nan nan
nan nan nan nan nan nan 17 15 13 8 12 15 14 9 5 7 10 12 nan nan nan nan nan nan nan nan nan nan nan nan nan nan nan nan nan nan nan nan nan nan nan nan nan
nan nan nan nan nan 7 5 9 15 12 nan nan 4 0 4 9 10 14 12 nan nan nan nan nan nan nan nan nan nan nan nan nan nan nan nan nan nan nan nan nan nan nan nan
nan nan nan 6 9 10 9 8 9 7 9 4 4 8 12 13 15 11 10 nan nan nan nan nan nan nan nan nan nan nan nan nan nan nan nan nan nan nan nan nan nan nan nan
nan nan nan 12 10 6 7 7 nan nan nan 4 12 12 14 13 16 11 10 nan nan nan nan nan nan nan nan nan nan nan nan nan nan nan nan nan nan nan nan nan nan nan nan
nan 19 17 14 15 12 10 8 nan nan nan 11 20 17 16 16 17 13 nan nan nan nan nan nan nan nan nan nan nan nan nan nan nan nan nan nan nan nan nan nan nan nan nan
21 19 16 16 15 14 11 12 12 nan 13 15 22 21 18 16 15 15 nan nan nan nan nan nan nan nan nan nan nan nan nan nan nan nan nan nan nan nan nan nan nan nan nan
17 16 16 16 15 16 12 18 18 18 20 20 23 21 16 15 17 nan nan nan nan nan nan nan nan nan nan nan nan nan nan nan nan nan nan nan nan nan nan nan nan nan nan
19 15 16 16 14 18 22 16 23 20 22 23 26 25 21 20 nan nan nan nan nan nan nan nan nan nan nan nan nan nan nan nan nan nan nan nan nan nan nan nan nan nan nan
21 20 19 19 20 19 22 22 20 25 21 24 29 30 26 28 nan nan nan nan nan nan nan nan nan nan nan nan nan nan nan nan nan nan nan nan nan nan nan nan nan nan nan
Wind_Direction
245 261 258 269 277 279 281 284 284 284 285 286 289 292 296 294 292 290 294 291 292 284 277 278 275 277 280 283 282 nan 284 287 nan nan nan nan nan nan nan nan nan nan nan
250 254 266 273 277 278 279 279 280 282 284 286 289 291 292 291 289 286 292 296 290 286 279 274 274 276 nan nan nan nan nan nan nan 301 297 nan nan nan nan nan nan nan nan
256 268 270 269 276 277 277 278 281 283 283 285 288 288 290 291 291 291 284 290 290 281 276 274 nan nan nan nan nan nan nan nan nan 343 307 nan nan nan nan nan nan nan nan
256 264 269 265 273 273 276 278 277 278 281 285 290 288 289 292 292 288 283 281 283 280 276 271 nan nan nan nan nan nan nan nan nan nan nan nan nan nan nan nan nan nan nan
240 254 258 258 266 272 272 274 275 282 287 287 288 285 289 292 286 280 276 276 280 278 270 266 nan nan nan 275 281 nan nan nan nan nan nan nan nan nan nan nan nan nan nan
248 248 259 260 263 269 272 274 279 284 286 286 282 281 285 283 278 272 270 272 280 273 262 nan nan 273 273 275 nan nan nan nan nan nan nan nan nan nan nan nan nan nan nan
248 253 264 263 268 273 275 273 275 279 278 275 277 280 282 277 272 265 264 265 263 255 255 261 267 nan 266 nan nan nan nan nan nan nan nan nan nan nan nan nan nan nan nan
236 235 244 252 255 261 265 265 267 265 268 271 277 278 276 272 271 264 259 259 256 255 252 258 262 nan nan nan nan nan nan nan nan nan nan nan nan nan nan nan nan nan nan
260 263 269 239 242 249 252 250 252 256 260 263 266 274 270 278 277 275 272 265 263 261 250 258 nan nan nan nan nan nan nan nan nan nan nan nan nan nan nan nan nan nan nan
277 259 nan nan 244 nan nan 242 246 254 265 268 266 268 265 271 271 274 276 270 257 247 254 nan nan nan nan nan nan nan nan nan nan nan nan nan nan nan nan nan nan nan nan
262 271 271 274 nan nan nan 241 257 256 291 265 264 279 nan nan nan nan 260 256 254 248 nan nan nan nan nan nan nan nan nan nan nan nan nan nan nan nan nan nan nan nan nan
257 267 277 276 266 nan nan nan 256 280 310 281 nan nan nan 263 264 nan 257 248 nan nan nan nan nan nan nan nan nan nan nan nan nan nan nan nan nan nan nan nan nan nan nan
262 262 277 282 nan nan nan nan nan nan nan 294 264 294 271 252 257 258 nan nan nan nan nan nan nan nan nan nan nan nan nan nan nan nan nan nan nan nan nan nan nan nan nan
269 277 280 281 nan nan nan nan nan nan nan 260 264 266 253 249 237 221 nan nan nan nan nan nan nan nan nan nan nan nan nan nan nan nan nan nan nan nan nan nan nan nan nan
nan nan nan nan nan nan nan nan nan 288 286 276 271 247 250 232 221 178 225 nan nan nan nan nan nan nan nan nan nan nan nan nan nan nan nan nan nan nan nan nan nan nan nan
nan nan nan nan nan nan nan nan nan nan nan 292 257 262 240 168 175 212 243 nan nan nan nan nan nan nan nan nan nan nan nan nan nan nan nan nan nan nan nan nan nan nan nan
nan nan nan nan nan nan nan nan 262 258 288 282 235 166 114 132 201 253 257 nan nan nan nan nan nan nan nan nan nan nan nan nan nan nan nan nan nan nan nan nan nan nan nan
nan nan nan nan nan nan 281 312 295 272 131 120 112 117 128 210 245 256 nan nan nan nan nan nan nan nan nan nan nan nan nan nan nan nan nan nan nan nan nan nan nan nan nan
nan nan nan nan nan 13 6 113 130 134 nan nan 108 157 271 247 268 267 284 nan nan nan nan nan nan nan nan nan nan nan nan nan nan nan nan nan nan nan nan nan nan nan nan
nan nan nan 51 70 63 96 105 83 58 48 12 266 248 270 266 279 282 279 nan nan nan nan nan nan nan nan nan nan nan nan nan nan nan nan nan nan nan nan nan nan nan nan
nan nan nan 45 59 63 51 27 nan nan nan 270 266 270 283 285 295 297 269 nan nan nan nan nan nan nan nan nan nan nan nan nan nan nan nan nan nan nan nan nan nan nan nan
nan 26 16 18 3 11 356 346 nan nan nan 290 281 282 284 285 287 282 nan nan nan nan nan nan nan nan nan nan nan nan nan nan nan nan nan nan nan nan nan nan nan nan nan
11 10 15 2 357 344 350 308 294 nan 285 293 293 282 282 288 285 287 nan nan nan nan nan nan nan nan nan nan nan nan nan nan nan nan nan nan nan nan nan nan nan nan nan
8 356 356 352 350 330 320 309 317 302 300 293 288 286 283 289 284 nan nan nan nan nan nan nan nan nan nan nan nan nan nan nan nan nan nan nan nan nan nan nan nan nan nan
354 347 343 345 337 323 315 323 308 306 297 294 289 292 284 283 nan nan nan nan nan nan nan nan nan nan nan nan nan nan nan nan nan nan nan nan nan nan nan nan nan nan nan
332 331 332 336 338 329 319 324 322 315 313 308 295 290 281 280 nan nan nan nan nan nan nan nan nan nan nan nan nan nan nan nan nan nan nan nan nan nan nan nan nan nan nan